• Em Portugal
  • Lista de países
  • Para 7 dias
  • Temperatura da água
  • Mapas de satélite
  • Mapa do tempo
  • Widgets de tempo
  • user-avatar
    Iniciar Sessão

    Previsão horária em Mihalinovo

    Hoje, 22 Julho, Domingo

    Tempo Temperatura Precipitação Vento Pressão Humidade
    00:00 +20°C° 0,1 mm 1 m/s 738 mmHg 94%
    01:00 +19°C° 0,1 mm 1 m/s 738 mmHg 94%
    02:00 +19°C° 0 mm 1 m/s 738 mmHg 95%
    03:00 +19°C° 0,1 mm 1 m/s 738 mmHg 95%
    04:00 +19°C° 0,1 mm 1 m/s 738 mmHg 95%
    05:00 +19°C° 0,1 mm 1 m/s 738 mmHg 96%
    06:00 +19°C° 0,2 mm 2 m/s 738 mmHg 94%
    07:00 +21°C° 0,2 mm 2 m/s 738 mmHg 92%
    08:00 +23°C° 0,2 mm 2 m/s 738 mmHg 90%
    09:00 +24°C° 1 mm 3 m/s 738 mmHg 87%
    10:00 +25°C° 1 mm 3 m/s 738 mmHg 84%
    11:00 +25°C° 1 mm 3 m/s 738 mmHg 82%
    12:00 +26°C° 0,8 mm 3 m/s 738 mmHg 81%
    13:00 +26°C° 0,8 mm 4 m/s 738 mmHg 81%
    14:00 +26°C° 0,8 mm 4 m/s 738 mmHg 80%
    15:00 +26°C° 1,1 mm 4 m/s 738 mmHg 83%
    16:00 +25°C° 1,1 mm 4 m/s 738 mmHg 85%
    17:00 +23°C° 1,1 mm 4 m/s 738 mmHg 88%
    18:00 +22°C° 0,3 mm 3 m/s 738 mmHg 90%
    19:00 +22°C° 0,3 mm 3 m/s 738 mmHg 91%
    20:00 +21°C° 0,3 mm 3 m/s 738 mmHg 93%
    21:00 +20°C° 0 mm 3 m/s 738 mmHg 93%
    22:00 +20°C° 0 mm 3 m/s 738 mmHg 93%
    23:00 +20°C° 0 mm 3 m/s 739 mmHg 94%

    Amanhã, 23 Julho, Segunda-feira

    Tempo Temperatura Precipitação Vento Pressão Humidade
    00:00 +19°C° 0 mm 3 m/s 739 mmHg 94%
    01:00 +19°C° 0 mm 3 m/s 739 mmHg 94%
    02:00 +19°C° 0 mm 3 m/s 739 mmHg 95%
    03:00 +19°C° 0 mm 3 m/s 739 mmHg 94%
    04:00 +19°C° 0 mm 3 m/s 739 mmHg 94%
    05:00 +19°C° 0 mm 3 m/s 739 mmHg 94%
    06:00 +19°C° 0 mm 3 m/s 739 mmHg 93%
    07:00 +19°C° 0 mm 3 m/s 739 mmHg 92%
    08:00 +20°C° 0 mm 4 m/s 739 mmHg 91%
    09:00 +20°C° 0,1 mm 4 m/s 739 mmHg 89%
    10:00 +21°C° 0,1 mm 4 m/s 739 mmHg 87%
    11:00 +22°C° 0,1 mm 4 m/s 739 mmHg 84%
    12:00 +22°C° 0,1 mm 4 m/s 739 mmHg 83%
    13:00 +22°C° 0,1 mm 3 m/s 739 mmHg 82%
    14:00 +24°C° 0,1 mm 3 m/s 739 mmHg 81%
    15:00 +24°C° 0,5 mm 3 m/s 739 mmHg 82%
    16:00 +23°C° 0,5 mm 4 m/s 739 mmHg 83%
    17:00 +23°C° 0,5 mm 4 m/s 739 mmHg 84%
    18:00 +22°C° 0,2 mm 4 m/s 739 mmHg 87%
    19:00 +20°C° 0,2 mm 3 m/s 739 mmHg 91%
    20:00 +19°C° 0,2 mm 3 m/s 740 mmHg 94%
    21:00 +18°C° 0 mm 3 m/s 740 mmHg 95%
    22:00 +18°C° 0 mm 3 m/s 740 mmHg 96%
    23:00 +17°C° 0 mm 3 m/s 740 mmHg 96%

    Depois de amanhã, 24 Julho, Terça-feira

    Tempo Temperatura Precipitação Vento Pressão Humidade
    00:00 +17°C° 0 mm 3 m/s 740 mmHg 97%
    01:00 +16°C° 0 mm 3 m/s 740 mmHg 97%
    02:00 +16°C° 0 mm 3 m/s 740 mmHg 97%
    03:00 +16°C° 0 mm 3 m/s 740 mmHg 97%
    04:00 +16°C° 0 mm 3 m/s 740 mmHg 97%
    05:00 +17°C° 0 mm 3 m/s 740 mmHg 97%
    06:00 +17°C° 0,1 mm 3 m/s 740 mmHg 96%
    07:00 +17°C° 0,1 mm 3 m/s 740 mmHg 96%
    08:00 +18°C° 0,1 mm 3 m/s 740 mmHg 95%
    09:00 +18°C° 0,1 mm 3 m/s 740 mmHg 93%
    10:00 +19°C° 0,1 mm 4 m/s 740 mmHg 92%
    11:00 +20°C° 0,1 mm 4 m/s 740 mmHg 90%
    12:00 +21°C° 0,2 mm 4 m/s 740 mmHg 89%
    13:00 +21°C° 0,2 mm 4 m/s 740 mmHg 88%
    14:00 +22°C° 0,2 mm 4 m/s 740 mmHg 87%
    15:00 +22°C° 0,3 mm 4 m/s 740 mmHg 87%
    16:00 +22°C° 0,3 mm 4 m/s 740 mmHg 88%
    17:00 +22°C° 0,3 mm 4 m/s 740 mmHg 88%
    18:00 +22°C° 0,1 mm 4 m/s 740 mmHg 90%
    19:00 +21°C° 0,1 mm 3 m/s 740 mmHg 93%
    20:00 +20°C° 0,1 mm 3 m/s 740 mmHg 95%
    21:00 +20°C° 0,9 mm 3 m/s 740 mmHg 96%
    22:00 +20°C° 0,9 mm 3 m/s 740 mmHg 96%
    23:00 +19°C° 0,9 mm 3 m/s 740 mmHg 97%

    25 Julho, Quarta-feira

    Tempo Temperatura Precipitação Vento Pressão Humidade
    00:00 +19°C° 0,1 mm 3 m/s 740 mmHg 97%
    01:00 +19°C° 0,1 mm 3 m/s 740 mmHg 96%
    02:00 +19°C° 0,1 mm 4 m/s 740 mmHg 96%
    03:00 +19°C° 0,2 mm 4 m/s 740 mmHg 96%
    04:00 +19°C° 0,2 mm 4 m/s 741 mmHg 96%
    05:00 +18°C° 0,2 mm 4 m/s 741 mmHg 95%
    06:00 +19°C° 0,1 mm 4 m/s 741 mmHg 94%
    07:00 +20°C° 0,1 mm 4 m/s 741 mmHg 93%
    08:00 +20°C° 0,1 mm 4 m/s 742 mmHg 92%
    09:00 +21°C° 0,2 mm 5 m/s 742 mmHg 88%
    10:00 +22°C° 0,2 mm 5 m/s 742 mmHg 85%
    11:00 +23°C° 0,2 mm 5 m/s 742 mmHg 82%
    12:00 +23°C° 0,2 mm 5 m/s 742 mmHg 81%
    13:00 +23°C° 0,2 mm 5 m/s 742 mmHg 80%
    14:00 +23°C° 0,2 mm 5 m/s 742 mmHg 79%
    15:00 +22°C° 0,1 mm 5 m/s 742 mmHg 82%
    16:00 +22°C° 0,1 mm 4 m/s 742 mmHg 84%
    17:00 +21°C° 0,1 mm 4 m/s 742 mmHg 87%
    18:00 +20°C° 0,1 mm 3 m/s 742 mmHg 90%
    19:00 +19°C° 0,1 mm 3 m/s 742 mmHg 92%
    20:00 +19°C° 0,1 mm 2 m/s 742 mmHg 95%
    21:00 +19°C° 0 mm 2 m/s 742 mmHg 96%
    22:00 +18°C° 0 mm 2 m/s 742 mmHg 96%
    23:00 +18°C° 0 mm 2 m/s 742 mmHg 97%

    26 Julho, Quinta-feira

    Tempo Temperatura Precipitação Vento Pressão Humidade
    00:00 +18°C° 0 mm 3 m/s 742 mmHg 97%
    01:00 +18°C° 0 mm 3 m/s 743 mmHg 97%
    02:00 +18°C° 0 mm 3 m/s 743 mmHg 97%
    03:00 +19°C° 0 mm 3 m/s 743 mmHg 97%
    04:00 +19°C° 0 mm 3 m/s 743 mmHg 97%
    05:00 +19°C° 0 mm 4 m/s 744 mmHg 97%
    06:00 +20°C° 0,1 mm 4 m/s 744 mmHg 95%
    07:00 +21°C° 0,1 mm 4 m/s 744 mmHg 92%
    08:00 +22°C° 0,1 mm 4 m/s 744 mmHg 90%
    09:00 +23°C° 0 mm 4 m/s 744 mmHg 84%
    10:00 +26°C° 0 mm 4 m/s 744 mmHg 78%
    11:00 +27°C° 0 mm 5 m/s 744 mmHg 73%
    12:00 +27°C° 0 mm 5 m/s 744 mmHg 70%
    13:00 +28°C° 0 mm 5 m/s 744 mmHg 67%
    14:00 +29°C° 0 mm 5 m/s 744 mmHg 65%
    15:00 +28°C° 0 mm 4 m/s 744 mmHg 68%
    16:00 +28°C° 0 mm 4 m/s 744 mmHg 71%
    17:00 +28°C° 0 mm 3 m/s 744 mmHg 74%
    18:00 +27°C° 0,1 mm 3 m/s 745 mmHg 79%
    19:00 +25°C° 0,1 mm 3 m/s 745 mmHg 83%
    20:00 +22°C° 0,1 mm 3 m/s 745 mmHg 87%
    21:00 +22°C° 0 mm 3 m/s 745 mmHg 88%
    22:00 +21°C° 0 mm 4 m/s 745 mmHg 88%
    23:00 +20°C° 0 mm 4 m/s 745 mmHg 89%

    27 Julho, Sexta-feira

    Tempo Temperatura Precipitação Vento Pressão Humidade
    00:00 +20°C° 0 mm 3 m/s 745 mmHg 91%
    01:00 +19°C° 0 mm 3 m/s 746 mmHg 93%
    02:00 +19°C° 0 mm 3 m/s 746 mmHg 95%
    03:00 +19°C° 0 mm 3 m/s 746 mmHg 95%
    04:00 +19°C° 0 mm 3 m/s 746 mmHg 95%
    05:00 +19°C° 0 mm 3 m/s 746 mmHg 96%
    06:00 +20°C° 0 mm 4 m/s 746 mmHg 92%
    07:00 +21°C° 0 mm 4 m/s 746 mmHg 88%
    08:00 +23°C° 0 mm 5 m/s 746 mmHg 85%
    09:00 +25°C° 0,2 mm 5 m/s 746 mmHg 81%
    10:00 +26°C° 0,2 mm 5 m/s 747 mmHg 77%
    11:00 +28°C° 0,2 mm 5 m/s 747 mmHg 73%
    12:00 +28°C° 0,7 mm 5 m/s 747 mmHg 73%
    13:00 +28°C° 0,7 mm 5 m/s 747 mmHg 73%
    14:00 +28°C° 0,7 mm 5 m/s 746 mmHg 73%
    15:00 +28°C° 0,4 mm 5 m/s 747 mmHg 75%
    16:00 +28°C° 0,4 mm 4 m/s 747 mmHg 77%
    17:00 +27°C° 0,4 mm 4 m/s 747 mmHg 79%
    18:00 +26°C° 0,3 mm 4 m/s 747 mmHg 81%
    19:00 +25°C° 0,3 mm 4 m/s 747 mmHg 83%
    20:00 +23°C° 0,3 mm 4 m/s 747 mmHg 85%
    21:00 +23°C° 0,1 mm 4 m/s 747 mmHg 86%
    22:00 +22°C° 0,1 mm 4 m/s 747 mmHg 87%
    23:00 +21°C° 0,1 mm 4 m/s 748 mmHg 88%
    Mostrar mais